Dublin, GA

1:20 PM EDT on May 23, 2017 (GMT -0400)
Dublin

Weather History for KDBN - September, 2012

Change the Weather History Date:

Sunday, September 30, 2012

  Actual Average Record
Temperature  
Mean Temperature 74 °F -  
Max Temperature 78 °F 83 °F 96 °F (1954)
Min Temperature 69 °F 57 °F 33 °F (1967)
Cooling Degree Days 8    
Growing Degree Days 24 (Base 50)    
Moisture  
Dew Point 70 °F    
Average Humidity 91    
Maximum Humidity 100    
Minimum Humidity 69    
Precipitation  
Precipitation 0.00 in - - ()
Sea Level Pressure  
Sea Level Pressure 29.87 in    
Wind  
Wind Speed 3 mph (SSW)    
Max Wind Speed 9 mph    
Max Gust Speed -    
Visibility 9 miles    
Events Rain    
Averages and records for this station are not official NWS values.
T = Trace of Precipitation, MM = Missing Value Source: NWS Daily Summary

Daily Weather History Graph

Daily Weather History Graph

Search for Another Location

Airport or City:

Trip Planner

Search our weather history database for the weather conditions in past years. The results will help you decide how hot, cold, wet, or windy it might be!

Date:

Astronomy

Sep. 30, 2012 Rise Set
Actual Time 7:25 AM EDT 7:17 PM EDT
Civil Twilight 7:01 AM EDT 7:41 PM EDT
Nautical Twilight 6:32 AM EDT 8:10 PM EDT
Astronomical Twilight 6:03 AM EDT 8:39 PM EDT
Moon 7:25 PM EDT (9/30) 7:51 AM EDT (9/30)
Length of Visible Light 12h 40m
Length of Day
11h 51m
Full, 100% of the Moon is Illuminated
Sep 30
Full
Oct 8
Last Quarter
Oct 15
New
Oct 21
First Quarter
Oct 29
Full

Hourly Weather History & Observations

Time (EDT) Temp. Dew Point Humidity Pressure Visibility Wind Dir Wind Speed Gust Speed Precip Events Conditions
12:15 AM 71.6 °F 69.8 °F 94% 29.93 in 10.0 mi WSW 4.6 mph - N/A   Mostly Cloudy
12:35 AM 71.6 °F 69.8 °F 94% 29.92 in 10.0 mi WSW 5.8 mph - N/A   Scattered Clouds
12:55 AM 71.6 °F 69.8 °F 94% 29.91 in 10.0 mi WSW 6.9 mph - N/A   Clear
1:15 AM 71.6 °F 69.8 °F 94% 29.91 in 10.0 mi WSW 6.9 mph - N/A   Clear
1:55 AM 71.6 °F 69.8 °F 94% 29.91 in 10.0 mi West 5.8 mph - N/A   Clear
2:15 AM 71.6 °F 69.8 °F 94% 29.91 in 10.0 mi West 4.6 mph - N/A   Clear
2:35 AM 71.6 °F 69.8 °F 94% 29.90 in 10.0 mi West 4.6 mph - N/A   Clear
2:55 AM 71.6 °F 69.8 °F 94% 29.90 in 10.0 mi WNW 3.5 mph - N/A   Clear
3:15 AM 71.6 °F 69.8 °F 94% 29.89 in 10.0 mi West 3.5 mph - N/A   Clear
3:35 AM 71.6 °F 69.8 °F 94% 29.89 in 10.0 mi Calm Calm - N/A   Clear
3:55 AM 71.6 °F 69.8 °F 94% 29.89 in 10.0 mi Calm Calm - N/A   Clear
4:15 AM 69.8 °F 69.8 °F 100% 29.89 in 10.0 mi Calm Calm - N/A   Scattered Clouds
4:35 AM 69.8 °F 69.8 °F 100% 29.89 in 10.0 mi Calm Calm - N/A   Overcast
4:55 AM 69.8 °F 69.8 °F 100% 29.89 in 10.0 mi Calm Calm - N/A   Overcast
5:15 AM 69.8 °F 69.8 °F 100% 29.88 in 10.0 mi Calm Calm - N/A   Scattered Clouds
5:35 AM 69.8 °F 69.8 °F 100% 29.88 in 10.0 mi Calm Calm - N/A   Mostly Cloudy
5:55 AM 69.8 °F 69.8 °F 100% 29.88 in 10.0 mi Calm Calm - N/A   Overcast
6:15 AM 69.8 °F 69.8 °F 100% 29.88 in 10.0 mi Calm Calm - N/A   Overcast
6:35 AM 69.8 °F 69.8 °F 100% 29.88 in 10.0 mi Calm Calm - N/A   Overcast
6:55 AM 69.8 °F 69.8 °F 100% 29.89 in 10.0 mi Calm Calm - N/A   Overcast
7:15 AM 69.8 °F 69.8 °F 100% 29.89 in 7.0 mi Calm Calm - N/A   Overcast
7:35 AM 69.8 °F 69.8 °F 100% 29.89 in 10.0 mi Calm Calm - N/A   Overcast
7:55 AM 69.8 °F 69.8 °F 100% 29.89 in 7.0 mi Calm Calm - N/A Rain Rain
8:15 AM 71.6 °F 69.8 °F 94% 29.89 in 7.0 mi Calm Calm - N/A   Overcast
8:35 AM 71.6 °F 69.8 °F 94% 29.89 in 7.0 mi Calm Calm - N/A   Overcast
8:55 AM 71.6 °F 71.6 °F 100% 29.89 in 10.0 mi Calm Calm - N/A   Mostly Cloudy
9:15 AM 71.6 °F 71.6 °F 100% 29.90 in 10.0 mi Calm Calm - N/A   Mostly Cloudy
9:35 AM 71.6 °F 71.6 °F 100% 29.90 in 10.0 mi Calm Calm - N/A   Overcast
9:55 AM 73.4 °F 71.6 °F 94% 29.91 in 10.0 mi Calm Calm - N/A   Overcast
10:15 AM 73.4 °F 71.6 °F 94% 29.92 in 10.0 mi South 3.5 mph - N/A   Overcast
10:35 AM 73.4 °F 71.6 °F 94% 29.92 in 7.0 mi Calm Calm - N/A   Drizzle
10:55 AM 73.4 °F 71.6 °F 94% 29.92 in 10.0 mi SW 3.5 mph - N/A   Drizzle
11:15 AM 73.4 °F 71.6 °F 94% 29.92 in 10.0 mi Calm Calm - N/A   Overcast
11:35 AM 73.4 °F 71.6 °F 94% 29.91 in 10.0 mi Calm Calm - N/A   Drizzle
11:55 AM 73.4 °F 69.8 °F 88% 29.91 in 10.0 mi Calm Calm - N/A   Overcast
12:15 PM 75.2 °F 71.6 °F 89% 29.91 in 10.0 mi Calm Calm - N/A   Overcast
12:35 PM 75.2 °F 69.8 °F 83% 29.90 in 10.0 mi Calm Calm - N/A   Overcast
12:55 PM 77.0 °F 68.0 °F 74% 29.90 in 10.0 mi Calm Calm - N/A   Overcast
1:15 PM 77.0 °F 69.8 °F 78% 29.90 in 10.0 mi Calm Calm - N/A   Overcast
1:35 PM 77.0 °F 68.0 °F 74% 29.89 in 10.0 mi Calm Calm - N/A   Overcast
1:55 PM 77.0 °F 68.0 °F 74% 29.88 in 10.0 mi Calm Calm - N/A   Overcast
2:15 PM 77.0 °F 68.0 °F 74% 29.87 in 10.0 mi ESE 3.5 mph - N/A   Overcast
2:35 PM 78.8 °F 68.0 °F 69% 29.86 in 10.0 mi ESE 3.5 mph - N/A   Overcast
2:55 PM 77.0 °F 68.0 °F 74% 29.86 in 10.0 mi Calm Calm - N/A   Overcast
3:15 PM 77.0 °F 68.0 °F 74% 29.85 in 10.0 mi Calm Calm - N/A   Overcast
3:35 PM 78.8 °F 68.0 °F 69% 29.84 in 10.0 mi ENE 3.5 mph - N/A   Overcast
4:15 PM 77.0 °F 68.0 °F 74% 29.84 in 10.0 mi South 3.5 mph - N/A   Overcast
4:35 PM 77.0 °F 68.0 °F 74% 29.83 in 10.0 mi Calm Calm - N/A   Overcast
4:55 PM 77.0 °F 68.0 °F 74% 29.83 in 10.0 mi SSE 4.6 mph - N/A   Overcast
5:15 PM 77.0 °F 68.0 °F 74% 29.83 in 10.0 mi South 5.8 mph - N/A   Overcast
5:35 PM 77.0 °F 68.0 °F 74% 29.83 in 10.0 mi SSE 4.6 mph - N/A   Overcast
5:55 PM 77.0 °F 68.0 °F 74% 29.83 in 10.0 mi SE 3.5 mph - N/A   Overcast
6:15 PM 77.0 °F 68.0 °F 74% 29.83 in 10.0 mi Calm Calm - N/A   Overcast
6:35 PM 77.0 °F 69.8 °F 78% 29.83 in 10.0 mi Calm Calm - N/A Rain Light Rain
6:55 PM 73.4 °F 69.8 °F 88% 29.83 in 7.0 mi Calm Calm - N/A Rain Rain
7:15 PM 71.6 °F 71.6 °F 100% 29.83 in 5.0 mi NE 4.6 mph - N/A   Drizzle
7:35 PM 71.6 °F 71.6 °F 100% 29.83 in 7.0 mi West 9.2 mph - N/A   Light Drizzle
7:55 PM 73.4 °F 71.6 °F 94% 29.83 in 10.0 mi ENE 3.5 mph - N/A Rain Rain
8:15 PM 71.6 °F 71.6 °F 100% 29.83 in 10.0 mi East 3.5 mph - N/A Rain Rain
8:35 PM 71.6 °F 71.6 °F 100% 29.83 in 5.0 mi East 5.8 mph - N/A Rain Rain
8:55 PM 71.6 °F 71.6 °F 100% 29.83 in 7.0 mi ENE 4.6 mph - N/A Rain Light Rain
9:15 PM 71.6 °F 71.6 °F 100% 29.83 in 7.0 mi NNW 6.9 mph - N/A Rain Light Rain
9:35 PM 69.8 °F 69.8 °F 100% 29.85 in 4.0 mi NW 4.6 mph - N/A Rain Light Rain
9:55 PM 69.8 °F 69.8 °F 100% 29.84 in 3.0 mi NE 3.5 mph - N/A Rain Heavy Rain
10:15 PM 69.8 °F 69.8 °F 100% 29.85 in 10.0 mi Calm Calm - N/A Rain Light Rain
10:35 PM 69.8 °F 69.8 °F 100% 29.84 in 7.0 mi Calm Calm - N/A   Mostly Cloudy
10:55 PM 69.8 °F 69.8 °F 100% 29.85 in 7.0 mi Calm Calm - N/A   Mostly Cloudy
11:15 PM 71.6 °F 71.6 °F 100% 29.84 in 7.0 mi Calm Calm - N/A   Overcast
11:35 PM 71.6 °F 71.6 °F 100% 29.84 in 7.0 mi Calm Calm - N/A Rain Light Rain
11:55 PM 71.6 °F 71.6 °F 100% 29.84 in 5.0 mi East 3.5 mph - N/A   Overcast